MM0ZIF Weather Reports


time (UTC)temp
C
wind
direction
speed
KPH
gust
KPH
rain 1hr
cm
rain 24hr
cm
rain mn
cm
humidity
%
barometer
mb
20260508045507 6 133 1.6 8.0 0.03 0.64 0.08 95 1000.6
20260508045006 6 126 1.6 4.8 0.03 0.64 0.08 95 1000.9
20260508044507 6 36 0.0 8.0 0.03 0.64 0.08 95 1000.7
20260508044006 6 180 1.6 8.0 0.03 0.64 0.08 95 1000.6
20260508043506 6 157 1.6 8.0 0.03 0.64 0.08 96 1000.7
20260508043007 6 193 1.6 8.0 0.03 0.64 0.08 96 1000.7
20260508042507 6 128 1.6 3.2 0.03 0.64 0.08 96 1000.6
20260508042007 6 210 1.6 4.8 0.03 0.64 0.08 96 1000.5
20260508041507 6 166 0.0 0.0 0.03 0.64 0.08 96 1000.5
20260508041006 6 166 0.0 0.0 0.03 0.64 0.08 96 1000.5
20260508040506 6 166 0.0 1.6 0.03 0.64 0.08 96 1000.6
20260508040007 6 122 0.0 1.6 0.05 0.64 0.08 96 1000.5
20260508035506 6 163 0.0 0.0 0.03 0.61 0.05 96 1000.5
20260508035007 6 311 0.0 0.0 0.03 0.61 0.05 96 1000.3
20260508034506 6 323 0.0 1.6 0.03 0.61 0.05 95 1000.1
20260508034007 6 148 0.0 3.2 0.03 0.61 0.05 95 1000.2
20260508033507 6 200 1.6 8.0 0.03 0.61 0.05 95 1000.1
20260508032506 6 179 6.4 11.3 0.03 0.61 0.05 95 1000.2
20260508032006 6 158 8.0 11.3 0.03 0.61 0.05 94 1000.2
20260508031506 6 146 6.4 9.7 0.03 0.61 0.05 92 1000.1
20260508031006 6 137 8.0 9.7 0.03 0.61 0.05 92 1000.2
20260508030506 6 137 8.0 11.3 0.03 0.61 0.05 92 999.9
20260508025006 6 201 4.8 11.3 0.03 0.58 0.03 91 999.7
20260508024506 6 163 8.0 14.5 0.03 0.58 0.03 92 999.6
20260508023506 6 169 9.7 14.5 0.03 0.58 0.03 93 999.5
20260508023006 6 169 9.7 14.5 0.03 0.58 0.03 93 999.3
20260508022506 6 169 9.7 14.5 0.03 0.58 0.03 93 999.6
20260508022006 7 161 8.0 12.9 0.03 0.58 0.03 92 999.3
20260508021506 7 161 8.0 12.9 0.03 0.58 0.03 92 999.4
20260508021006 7 161 8.0 12.9 0.03 0.58 0.03 92 999.5
20260508020505 7 161 8.0 12.9 0.03 0.58 0.03 92 999.5
20260508020006 7 133 6.4 14.5 0.03 0.58 0.03 92 999.4
20260508015506 7 304 3.2 20.9 0.00 0.56 0.00 90 999.5
20260508015005 7 146 8.0 22.5 0.00 0.56 0.00 90 999.3
20260508014506 7 154 6.4 16.1 0.00 0.56 0.00 89 999.4
20260508014007 6 152 4.8 22.5 0.00 0.56 0.00 90 999.3
20260508013506 6 162 4.8 22.5 0.00 0.56 0.00 90 999.2
20260508013006 7 189 6.4 19.3 0.00 0.56 0.00 90 999.0
20260508012505 7 96 3.2 11.3 0.00 0.56 0.00 91 999.1
20260508012006 7 81 1.6 14.5 0.00 0.56 0.00 91 999.3
20260508011505 7 217 4.8 14.5 0.00 0.56 0.00 91 999.2
20260508010505 7 228 4.8 12.9 0.00 0.56 0.00 90 999.1
20260508010006 7 171 6.4 24.1 0.00 0.56 0.00 89 998.9
20260508005505 7 246 4.8 14.5 0.00 0.56 0.00 88 999.0
20260508005006 7 145 6.4 19.3 0.00 0.56 0.00 88 999.0
20260508004006 7 220 4.8 16.1 0.00 0.56 0.00 88 998.7
20260508003506 7 178 4.8 19.3 0.00 0.56 0.00 88 998.8
20260508003006 7 61 4.8 16.1 0.00 0.56 0.00 89 998.8
20260508002505 7 138 4.8 24.1 0.00 0.56 0.00 89 998.7
20260508002006 7 173 4.8 14.5 0.00 0.56 0.00 89 998.6
20260508001505 7 41 4.8 12.9 0.00 0.56 0.00 87 998.6
20260508000505 7 159 6.4 22.5 0.00 0.56 0.00 86 998.7
20260508000006 7 132 4.8 16.1 0.00 0.56 0.00 87 998.5
20260507235505 7 172 8.0 16.1 0.00 0.56 0.00 87 998.6
20260507234005 7 165 9.7 25.7 0.00 0.56 0.00 87 998.5
20260507233506 7 187 9.7 25.7 0.00 0.56 0.00 87 998.6
20260507233006 7 140 8.0 16.1 0.00 0.56 0.00 88 998.7
20260507232505 7 174 8.0 24.1 0.00 0.56 0.00 88 998.6
20260507232005 7 113 8.0 20.9 0.00 0.56 0.00 90 998.6
20260507231506 7 174 9.7 19.3 0.00 0.56 0.00 90 998.5
20260507231005 7 138 8.0 19.3 0.00 0.56 0.00 90 998.6
20260507230006 7 176 9.7 20.9 0.00 0.56 0.00 89 998.6
20260507225506 7 163 6.4 22.5 0.00 0.56 0.56 89 998.7
20260507224506 7 175 8.0 20.9 0.00 0.56 0.56 86 998.6
20260507224005 7 158 9.7 22.5 0.00 0.56 0.56 86 998.4
20260507223505 7 143 6.4 22.5 0.03 0.58 0.56 87 998.5
20260507223006 7 146 8.0 20.9 0.03 0.58 0.56 86 998.6
20260507222506 7 163 4.8 22.5 0.03 0.64 0.56 87 998.5
20260507222005 7 174 8.0 24.1 0.03 0.74 0.56 87 998.5
20260507221505 7 121 9.7 16.1 0.03 0.76 0.56 88 998.5
20260507221005 7 98 6.4 19.3 0.03 0.79 0.56 89 998.5
20260507220005 7 143 8.0 20.9 0.03 0.81 0.56 90 998.4
20260507215505 7 156 4.8 25.7 0.03 0.84 0.56 91 998.5
20260507215005 7 196 4.8 20.9 0.03 0.84 0.56 91 998.5
20260507214505 7 156 4.8 20.9 0.03 0.86 0.56 91 998.5
20260507214005 8 19 8.0 20.9 0.03 0.86 0.56 89 998.7
20260507213505 8 161 12.9 20.9 0.00 0.84 0.53 88 998.5
20260507213005 8 156 9.7 20.9 0.00 0.84 0.53 88 998.4
20260507212504 7 116 4.8 16.1 0.00 0.84 0.53 88 998.3
20260507212005 7 191 4.8 16.1 0.00 0.84 0.53 88 998.4
20260507211505 7 152 8.0 16.1 0.00 0.84 0.53 88 998.4
20260507210505 7 125 8.0 14.5 0.00 0.84 0.53 88 998.4
20260507210005 7 168 8.0 16.1 0.03 0.84 0.53 88 998.4
20260507205505 7 170 8.0 20.9 0.03 0.84 0.53 89 998.5
20260507205005 7 99 8.0 19.3 0.03 0.84 0.53 90 998.4
20260507204505 7 168 4.8 12.9 0.03 0.84 0.53 90 998.2
20260507204004 7 192 4.8 12.9 0.03 0.84 0.53 91 998.4
20260507203005 7 56 3.2 16.1 0.03 0.84 0.53 91 998.2
20260507202505 7 74 4.8 25.7 0.03 0.84 0.53 91 998.2
20260507202005 7 192 6.4 25.7 0.03 0.84 0.53 91 998.3
20260507201504 7 149 8.0 14.5 0.03 0.84 0.53 91 998.3
20260507200505 8 347 4.8 20.9 0.03 0.84 0.53 89 998.2
20260507200005 8 153 6.4 16.1 0.00 0.81 0.51 86 998.4
20260507195505 8 147 8.0 14.5 0.00 0.81 0.51 84 998.3
20260507195005 8 166 4.8 20.9 0.00 0.81 0.51 83 998.1
20260507194505 8 173 6.4 19.3 0.00 0.81 0.51 83 998.0
20260507194005 8 120 4.8 16.1 0.00 0.81 0.51 84 998.1
20260507193505 8 190 4.8 14.5 0.00 0.81 0.51 84 998.1
20260507193005 8 76 8.0 22.5 0.00 0.81 0.51 83 997.9
20260507192505 8 112 4.8 19.3 0.00 0.81 0.51 83 998.0
20260507192004 8 100 6.4 20.9 0.00 0.81 0.51 83 998.1
20260507191504 8 262 8.0 20.9 0.00 0.81 0.51 82 997.9
20260507191005 8 213 6.4 24.1 0.00 0.81 0.51 84 997.7
20260507190504 8 55 4.8 20.9 0.00 0.81 0.51 86 997.7
20260507190005 8 59 4.8 24.1 0.00 0.81 0.51 87 997.9
20260507185504 8 135 8.0 22.5 0.00 0.81 0.51 88 997.6
20260507185004 8 217 8.0 20.9 0.00 0.81 0.51 90 997.7
20260507184004 8 144 8.0 20.9 0.00 0.81 0.51 90 997.8
20260507183504 9 137 8.0 22.5 0.00 0.81 0.51 89 998.0
20260507183004 9 179 6.4 16.1 0.00 0.81 0.51 89 997.9
20260507182504 9 182 8.0 20.9 0.00 0.81 0.51 90 997.9
20260507182004 9 143 8.0 29.0 0.00 0.81 0.51 89 998.0
20260507181505 9 170 9.7 20.9 0.00 0.81 0.51 88 997.7
20260507181004 9 108 6.4 32.2 0.00 0.81 0.51 88 997.8
20260507180504 9 116 8.0 32.2 0.00 0.81 0.51 88 997.7
20260507180004 9 178 9.7 22.5 0.00 0.81 0.51 88 997.8
20260507175504 10 174 4.8 22.5 0.00 0.81 0.51 87 997.8
20260507175004 10 127 11.3 27.4 0.00 0.81 0.51 85 997.9
20260507174504 10 174 6.4 19.3 0.00 0.81 0.51 86 997.8
20260507174004 10 148 8.0 24.1 0.00 0.81 0.51 85 998.1
20260507173504 10 109 4.8 20.9 0.00 0.81 0.51 87 997.8
20260507172504 10 195 8.0 24.1 0.00 0.81 0.51 89 998.0
20260507172004 10 179 12.9 29.0 0.00 0.81 0.51 89 997.9
20260507171504 10 141 8.0 16.1 0.00 0.81 0.51 90 998.0
20260507171005 10 202 6.4 20.9 0.00 0.81 0.51 90 998.0
20260507170504 9 140 6.4 22.5 0.00 0.81 0.51 90 998.0
20260507165504 9 169 9.7 22.5 0.00 0.81 0.51 92 998.2
20260507165004 9 163 6.4 22.5 0.00 0.81 0.51 92 998.2
20260507164009 8 153 8.0 20.9 0.00 0.81 0.51 92 998.3
20260507163509 8 32 8.0 22.5 0.00 0.81 0.51 93 998.2
20260507163009 9 146 8.0 22.5 0.00 0.81 0.51 93 998.4
20260507162009 9 208 4.8 16.1 0.03 0.81 0.51 93 998.4
20260507161509 8 169 6.4 16.1 0.05 0.81 0.51 94 998.4
20260507161010 9 151 8.0 24.1 0.13 0.81 0.51 94 998.3
20260507160509 8 105 9.7 20.9 0.23 0.81 0.51 94 998.3
20260507160009 8 166 4.8 20.9 0.23 0.81 0.51 94 998.2
20260507155509 8 154 9.7 24.1 0.23 0.81 0.51 95 998.2
20260507155009 8 174 8.0 20.9 0.23 0.81 0.51 95 998.4
20260507154510 8 155 8.0 24.1 0.28 0.81 0.51 96 998.5
20260507154010 8 138 8.0 20.9 0.28 0.81 0.51 96 998.4
20260507153509 8 144 4.8 19.3 0.28 0.81 0.51 96 998.6
20260507153010 8 157 8.0 20.9 0.30 0.81 0.51 96 998.4
20260507152508 8 114 4.8 20.9 0.30 0.81 0.51 96 998.7
20260507152009 8 157 3.2 24.1 0.28 0.79 0.48 96 998.6
20260507151509 8 173 8.0 22.5 0.25 0.76 0.46 96 998.6
20260507151009 8 156 8.0 20.9 0.18 0.69 0.38 95 998.8
20260507150509 8 126 3.2 20.9 0.08 0.58 0.28 95 998.6
20260507150009 8 146 8.0 24.1 0.10 0.58 0.28 95 998.6
20260507145009 8 167 9.7 29.0 0.15 0.58 0.28 95 998.7
20260507144509 8 175 9.7 29.0 0.13 0.53 0.23 94 998.6
20260507144009 8 173 11.3 27.4 0.13 0.53 0.23 95 998.5
20260507143509 8 114 8.0 24.1 0.15 0.53 0.23 95 998.6
20260507143009 8 105 9.7 24.1 0.13 0.51 0.20 95 998.7
20260507142509 8 195 8.0 29.0 0.15 0.51 0.20 95 998.6
20260507142009 8 139 8.0 29.0 0.18 0.51 0.20 95 998.7
20260507141508 8 109 8.0 25.7 0.18 0.51 0.20 95 998.7
20260507141008 8 125 9.7 25.7 0.18 0.51 0.20 95 998.8
20260507140509 8 191 6.4 25.7 0.18 0.51 0.20 95 998.9
20260507140009 8 93 6.4 24.1 0.15 0.48 0.18 94 999.0
20260507135509 8 153 4.8 19.3 0.13 0.46 0.15 94 999.1
20260507135008 8 105 9.7 25.7 0.10 0.43 0.13 93 998.9
20260507134509 8 174 8.0 25.7 0.08 0.41 0.10 92 999.0
20260507134009 8 109 6.4 25.7 0.08 0.41 0.10 93 999.0
20260507133509 8 133 11.3 25.7 0.05 0.38 0.08 94 999.0
20260507132508 9 79 9.7 32.2 0.03 0.36 0.05 92 998.8
20260507132008 9 143 8.0 32.2 0.00 0.33 0.03 91 999.1
20260507131509 9 182 12.9 33.8 0.00 0.33 0.03 90 998.9
20260507130508 9 139 9.7 35.4 0.00 0.33 0.03 89 998.9
20260507130009 9 135 11.3 33.8 0.00 0.33 0.03 89 999.0
20260507125509 9 49 12.9 27.4 0.00 0.33 0.03 89 998.9
20260507124508 9 148 9.7 32.2 0.00 0.33 0.03 89 999.0
20260507124009 9 22 8.0 33.8 0.00 0.33 0.03 89 999.0
20260507123509 10 161 9.7 32.2 0.00 0.33 0.03 88 998.9
20260507123008 10 179 11.3 37.0 0.00 0.33 0.03 84 998.8
20260507122508 10 167 14.5 35.4 0.00 0.33 0.03 83 998.7
20260507122008 10 139 11.3 27.4 0.00 0.33 0.03 82 998.9
20260507121508 10 179 14.5 33.8 0.00 0.33 0.03 84 998.9
20260507121009 10 230 11.3 32.2 0.00 0.33 0.03 87 999.1
20260507120509 10 106 9.7 33.8 0.00 0.33 0.03 86 999.0
20260507115008 9 154 11.3 27.4 0.00 0.33 0.03 89 999.0
20260507114508 9 143 16.1 32.2 0.03 0.33 0.03 90 999.0
20260507114008 9 176 9.7 24.1 0.03 0.33 0.03 89 999.1
20260507113508 9 140 9.7 33.8 0.03 0.33 0.03 87 999.2
20260507113008 9 173 19.3 40.2 0.03 0.33 0.03 87 999.1
20260507112508 9 156 11.3 27.4 0.03 0.33 0.03 88 998.9
20260507112008 9 126 9.7 32.2 0.03 0.33 0.03 90 998.9
20260507111008 9 129 9.7 33.8 0.03 0.33 0.03 88 999.0
20260507110009 9 171 14.5 29.0 0.03 0.33 0.03 87 999.1
20260507105008 9 120 9.7 38.6 0.03 0.33 0.03 88 999.0
20260507104508 9 168 12.9 32.2 0.00 0.30 0.00 88 998.9
20260507104008 9 133 11.3 27.4 0.00 0.30 0.00 88 999.2
20260507103508 10 138 9.7 27.4 0.00 0.30 0.00 88 999.1
20260507103008 9 220 9.7 32.2 0.00 0.30 0.00 89 999.2
20260507102508 8 161 11.3 27.4 0.00 0.30 0.00 90 999.3
20260507102008 8 154 11.3 24.1 0.00 0.30 0.00 91 999.2
20260507101508 8 116 9.7 27.4 0.00 0.30 0.00 93 999.2
20260507101008 8 105 9.7 22.5 0.00 0.30 0.00 92 999.2
20260507100508 8 120 11.3 22.5 0.00 0.30 0.00 92 999.3
20260507095508 8 153 8.0 25.7 0.00 0.30 0.00 92 999.1
20260507095008 8 159 9.7 25.7 0.00 0.30 0.00 91 999.5
20260507094508 8 176 9.7 29.0 0.00 0.30 0.00 91 999.4
20260507094008 8 174 8.0 27.4 0.00 0.30 0.00 89 999.6
20260507093508 9 173 11.3 25.7 0.00 0.30 0.00 87 999.5
20260507093008 9 151 11.3 32.2 0.00 0.30 0.00 84 999.4
20260507092508 9 141 8.0 20.9 0.00 0.30 0.00 84 999.5
20260507092008 9 117 11.3 27.4 0.00 0.30 0.00 83 999.5
20260507090507 8 123 4.8 20.9 0.00 0.30 0.00 85 999.6
20260507090007 8 143 11.3 25.7 0.00 0.30 0.00 86 999.6
20260507085508 8 125 8.0 27.4 0.00 0.30 0.00 86 999.5
20260507085008 8 162 8.0 22.5 0.00 0.30 0.00 87 999.7
20260507084508 8 88 8.0 25.7 0.00 0.30 0.00 87 999.6
20260507084008 8 171 8.0 25.7 0.00 0.30 0.00 87 999.6
20260507082508 8 151 9.7 25.7 0.00 0.30 0.00 85 999.6
20260507082007 8 118 9.7 25.7 0.00 0.30 0.00 85 999.7
20260507081507 9 159 9.7 22.5 0.00 0.30 0.00 84 999.6
20260507081008 9 147 6.4 24.1 0.00 0.30 0.00 84 999.8
20260507080507 8 156 8.0 22.5 0.00 0.30 0.00 84 999.9
20260507080008 8 156 12.9 33.8 0.00 0.30 0.00 84 999.6
20260507075508 8 180 11.3 27.4 0.00 0.30 0.00 84 999.7
20260507075008 8 142 9.7 22.5 0.00 0.30 0.00 84 999.6
20260507074507 8 63 6.4 16.1 0.00 0.30 0.00 85 999.8
20260507074008 8 92 9.7 25.7 0.00 0.30 0.00 85 999.6
20260507073507 8 181 8.0 27.4 0.00 0.30 0.00 84 999.6
20260507073007 8 167 9.7 22.5 0.00 0.30 0.00 83 999.6
20260507072507 8 156 9.7 22.5 0.00 0.30 0.00 83 999.6
20260507072007 8 175 8.0 19.3 0.00 0.30 0.00 83 999.8
20260507071507 8 108 8.0 25.7 0.00 0.30 0.00 84 999.6
20260507070507 8 171 9.7 19.3 0.00 0.30 0.00 85 999.9
20260507070010 8 113 4.8 16.1 0.00 0.30 0.00 86 999.9
20260507065508 8 124 6.4 16.1 0.00 0.30 0.00 86 999.9
20260507065007 8 99 1.6 20.9 0.00 0.30 0.00 87 1000.0
20260507064508 7 118 4.8 16.1 0.00 0.30 0.00 87 1000.1
20260507063507 7 67 4.8 16.1 0.00 0.30 0.00 88 1000.0
20260507063007 7 41 4.8 12.9 0.00 0.30 0.00 88 1000.2
20260507062507 7 152 3.2 14.5 0.00 0.30 0.00 88 1000.1
20260507062007 7 143 4.8 12.9 0.00 0.30 0.00 89 1000.2
20260507061507 7 80 3.2 20.9 0.00 0.30 0.00 89 1000.2
20260507061007 7 111 4.8 12.9 0.00 0.30 0.00 89 1000.2
20260507060008 7 164 4.8 16.1 0.00 0.30 0.00 89 1000.3
20260507055507 7 136 6.4 16.1 0.00 0.30 0.00 89 1000.3
20260507055007 7 154 4.8 12.9 0.00 0.30 0.00 89 1000.3
20260507054507 7 115 4.8 16.1 0.00 0.30 0.00 89 1000.2
20260507054007 7 150 4.8 11.3 0.00 0.30 0.00 89 1000.3
20260507053006 7 171 4.8 12.9 0.00 0.30 0.00 89 1000.4
20260507052507 7 190 3.2 11.3 0.00 0.30 0.00 89 1000.1
20260507052006 7 166 3.2 19.3 0.00 0.30 0.00 89 1000.4
20260507051506 6 148 4.8 14.5 0.00 0.30 0.00 89 1000.4
20260507051007 6 206 3.2 9.7 0.00 0.30 0.00 89 1000.3
20260507050506 6 146 3.2 12.9 0.00 0.30 0.00 89 1000.6